FW0274 Weather Reports


time (UTC)temp
F
wind
direction
speed
knots
gust
knots
rain 1hr
in
rain 24hr
in
rain mn
in
humidity
%
barometer
mb
20260504081533 52 180 0.0 2.6 0.00 0.00 0.00 62 1011.0
20260504044554 52 190 0.0 4.3 0.00 0.00 0.00 61 1013.2
20260504043057 51 177 0.9 5.2 0.00 0.00 0.00 62 1013.3
20260504041546 51 202 0.0 0.0 0.00 0.00 0.00 67 1013.3
20260504040044 50 126 0.0 1.7 0.00 0.00 0.00 69 1013.5
20260504034542 50 155 0.0 0.0 0.00 0.00 0.00 71 1013.6
20260504033041 49 198 0.0 0.0 0.00 0.00 0.00 72 1013.8
20260504031540 48 215 0.0 0.0 0.00 0.00 0.00 75 1013.7
20260504030038 47 160 0.0 0.0 0.00 0.00 0.00 75 1014.0
20260504024639 48 160 0.0 0.0 0.00 0.00 0.00 74 1014.2
20260504023038 48 160 0.0 0.0 0.00 0.00 0.00 73 1014.2
20260504021536 49 160 0.0 0.0 0.00 0.00 0.00 72 1014.3
20260504020048 49 178 0.0 0.0 0.00 0.00 0.00 72 1014.4
20260504014548 49 214 0.0 0.0 0.00 0.00 0.00 72 1014.4
20260504013043 50 219 0.0 0.0 0.00 0.00 0.00 71 1014.2
20260504011534 50 219 0.0 0.0 0.00 0.00 0.00 70 1014.1
20260504010039 50 219 0.0 0.0 0.00 0.00 0.00 69 1014.1
20260504004541 51 219 0.0 0.0 0.00 0.00 0.00 67 1014.2
20260504003032 51 219 0.0 0.0 0.00 0.00 0.00 65 1014.3
20260504001538 51 200 0.0 4.3 0.00 0.00 0.00 64 1014.7
20260504000030 52 225 1.7 10.4 0.00 0.00 0.00 60 1015.0
20260503234530 53 244 2.6 8.7 0.00 0.00 0.00 57 1014.8
20260503233032 54 174 2.6 8.7 0.00 0.00 0.00 54 1014.8
20260503231528 56 161 3.5 8.7 0.00 0.00 0.00 46 1014.6
20260503230028 57 240 0.0 7.8 0.00 0.00 0.00 41 1014.4
20260503224526 57 232 1.7 11.3 0.00 0.00 0.00 41 1014.4
20260503223024 58 195 0.0 8.7 0.00 0.00 0.00 42 1014.6
20260503221523 58 198 0.0 7.0 0.00 0.00 0.00 43 1014.7
20260503220022 58 194 1.7 7.8 0.00 0.00 0.00 41 1014.8
20260503214522 58 230 0.9 8.7 0.00 0.00 0.00 42 1014.9
20260503213020 58 228 2.6 8.7 0.00 0.00 0.00 40 1015.0
20260503211517 58 240 1.7 8.7 0.00 0.00 0.00 41 1015.1
20260503210017 58 236 1.7 7.8 0.00 0.00 0.00 41 1015.2
20260503204516 58 175 2.6 7.8 0.00 0.00 0.00 41 1015.4
20260503203035 59 203 3.5 8.7 0.00 0.00 0.00 39 1015.5
20260503201513 58 214 0.9 7.0 0.00 0.00 0.00 41 1015.5
20260503200013 58 248 1.7 8.7 0.00 0.00 0.00 41 1015.7
20260503194524 58 316 0.9 7.8 0.00 0.00 0.00 42 1015.9
20260503193009 59 266 0.0 7.8 0.00 0.00 0.00 43 1016.2
20260503191506 59 221 1.7 6.1 0.00 0.00 0.00 42 1016.5
20260503190005 58 198 0.9 6.1 0.00 0.00 0.00 42 1016.6
20260503184502 58 273 1.7 7.8 0.00 0.00 0.00 40 1016.9
20260503183001 58 257 2.6 5.2 0.00 0.00 0.00 43 1017.0
20260503181602 57 223 0.0 7.8 0.00 0.00 0.00 42 1017.3
20260503180056 57 229 0.9 7.0 0.00 0.00 0.00 46 1017.6
20260503174553 57 236 1.7 9.6 0.00 0.00 0.00 44 1017.7
20260503173052 57 236 1.7 7.8 0.00 0.00 0.00 41 1017.9
20260503171549 57 248 2.6 9.6 0.00 0.00 0.00 38 1018.1